Princeton/Rocky Hill (39N)
Princeton, NJ
Field Elevation: 128
Lat: 40°23.94N  Long: 74°39.54W
CTAF/Unicom Freq: 122.7250
   
     For Weather-by-Phone, call (609)-924-3901
Weather Advisories
7/30/2014 02:56 Z
Altimeter 29.99" Hg
Wind 350° @ 0 KT
Gusts --
Visibility 10 SM
Ceiling SCT090
Temperature 17° C (63° F)
Dewpoint 14° C (57° F)
Relative Humidity 88%
Density Altitude --
Condensation Altitude 1,200 feet
  Wind and Runways
Indicated Runway = 28
History
 
 
More Info
All DigiWx sites map
 
NOAA Forecast
 
Airport IQ 5010
(OCNJ) Ocean City
(PN44) Upper Gwynedd Heliport
 
about DigiWx
 
FAA Disclaimer: The data displayed is for advisory purposes only and is not to be used for flight planning or operations. For official data, please call (609)-924-3901 to hear the current automated AWOS voice message.
  METAR 39N 300256Z AUTO 35000KT 10SM SCT090 17/14 A2999